Погода в Заволжье

Россия / Ярославская область     57°40′14″N   40°00′48″E
темп.,
°C
ветер,
м/с
пор.,
м/с
влажн.,
%
обл.,
%
осадки,
мм/ч
давл.,
гПа
погр.,
м
12 апреля, пн
пн1200:00+7вюв3389100 0.0 103349
03:00+6вюв239186 0.0 103434
06:00+5ююв358944 0.0 103567
09:00+9ююв477766 0.0 1036289
12:00+12юв586468 0.0 1035681
15:00+13вюв6966100 0.0 1034753
18:00+10вюв61280100 0.0 1033580
21:00+8юв61387100 0.0 1033558
13 апреля, вт
вт1300:00+7юв51191100 0.0 1031405
03:00+5юв4997100 0.0 1030235
06:00+5вюв4897100 0.0 1029177
09:00+10ююв5979100 0.0 1027337
12:00+17ю6105382 0.0 1026835
15:00+19ю61044100 0.0 10251544
18:00+16ю5105198 0.0 1024250
21:00+11ю356784 0.0 102574
14 апреля, ср
ср1400:00+10ю367170 0.0 102484
03:00+9ю387376 0.0 1024130
06:00+8ю311770 0.0 1023179
09:00+13ю5105648 0.0 1022387
12:00+17ю684088 0.0 1021974
15:00+18ю683569 0.0 10201640
18:00+16ю484774 0.0 1019218
21:00+12ю346293 0.0 101961
15 апреля, чт
чт1500:00+10ююз34695 0.0 101944
03:00+8зюз227288 0.0 102011
06:00+8ююз117197 0.0 101910
09:00+12ююв116086 0.0 1020156
12:00+16всв114681 0.0 1019696
15:00+17св2243100 0.0 10191233
18:00+12ссв6979100 0.0 1020442
21:00+9ссв51185100 0.0 1021383
16 апреля, пт
пт1600:00+7св51186100 0.0 1022371
03:00+6св5118878 0.0 1023397
06:00+6св61183100 0.0 1023470
09:00+6св61079100 0.0 1025527
12:00+9всв685348 0.0 1026935
15:00+12св78365 0.0 10261391
18:00+10св69445 0.0 1027927
21:00+6св512604 0.0 1029332